Theta_e
334 335 338 342 342 342 342 341 341 341 344 346 346 341 341 342 346 345 344 345 347 346 347 347 352 355 357 353 348 350 351 350 348 346 347 347 347 347 348 347 347 347 347
334 335 341 343 343 344 343 342 344 346 344 342 339 342 343 343 341 336 337 337 339 338 338 339 343 347 351 357 354 352 351 349 349 347 345 347 347 347 346 344 346 347 346
340 344 345 344 350 350 349 348 343 337 330 329 328 338 337 338 330 325 331 330 327 329 331 331 332 335 340 345 350 352 348 348 349 348 347 346 346 346 347 346 346 346 345
344 347 345 349 349 347 342 340 336 325 324 322 321 331 324 328 319 321 326 322 322 320 323 325 326 329 333 338 341 343 344 346 348 347 347 348 347 347 346 347 346 346 344
350 349 350 346 341 336 330 332 327 323 320 318 319 327 319 321 316 318 320 319 318 318 318 320 323 324 329 335 336 340 341 344 345 346 347 347 346 346 346 347 345 345 345
350 349 343 332 326 321 320 322 321 321 319 317 318 316 320 316 314 315 315 316 317 317 317 317 317 317 325 328 329 333 335 339 343 344 343 344 344 345 345 345 346 346 345
347 338 332 326 325 321 320 319 318 318 316 316 312 312 316 317 313 313 314 314 315 315 316 316 314 316 319 322 324 328 330 332 334 336 338 339 342 345 345 346 345 344 345
334 331 328 326 324 319 317 316 317 315 314 315 311 309 304 308 311 313 312 314 313 313 313 314 315 315 318 317 319 323 327 327 329 329 330 336 338 344 344 344 345 345 345
329 329 327 325 320 316 314 317 317 317 310 313 315 310 303 303 306 310 313 313 311 311 311 312 312 313 316 314 316 319 323 324 325 327 327 329 335 337 340 342 342 343 344
327 327 324 322 318 317 315 316 317 314 313 309 312 314 313 312 306 303 308 310 310 310 311 310 311 312 313 312 315 316 317 320 321 324 325 327 332 334 336 338 340 341 343
329 327 323 320 318 318 315 315 315 314 311 311 312 311 310 308 308 306 302 304 308 309 310 310 310 310 311 311 310 312 315 317 316 319 321 322 325 331 333 335 337 339 341
325 323 321 319 318 317 318 316 314 314 312 312 311 309 308 307 305 304 302 303 302 305 309 309 309 309 310 309 309 311 314 311 313 316 318 318 320 322 329 332 335 337 338
321 319 319 318 317 317 316 314 313 312 309 308 307 307 306 305 306 305 303 302 300 304 307 308 309 308 308 308 307 310 311 308 312 313 314 315 316 317 319 326 329 334 335
319 320 317 315 315 314 311 309 307 307 305 304 303 303 304 305 305 305 303 301 299 300 303 304 307 307 306 307 308 310 306 307 310 310 311 313 313 313 315 318 322 326 330
319 316 313 310 310 309 307 306 304 303 302 302 303 303 303 304 304 305 305 303 301 296 297 302 300 307 305 305 306 308 306 306 307 307 308 312 312 311 311 313 314 320 324
314 311 309 308 307 307 306 304 302 302 301 300 301 302 302 303 304 305 305 304 304 300 295 300 301 303 305 304 306 306 304 306 306 306 307 310 310 309 309 311 311 314 320
310 309 308 307 306 304 303 302 303 301 300 299 300 300 301 303 304 304 305 303 301 300 296 299 301 304 303 303 304 305 305 304 304 305 307 308 310 308 308 309 309 310 314
307 307 307 306 304 303 302 301 299 299 298 297 298 299 300 302 305 305 304 302 301 301 298 297 300 301 302 304 304 303 303 304 304 304 306 306 308 307 306 306 307 308 310
305 306 306 304 303 302 301 300 299 298 297 297 297 298 299 301 303 303 303 302 302 302 301 298 298 301 302 303 303 304 303 303 303 305 305 305 305 305 305 305 305 307 307
304 303 304 303 302 301 300 299 298 296 296 297 297 298 298 298 300 302 302 301 300 300 299 298 298 298 300 302 301 299 298 301 301 304 304 303 304 304 303 303 304 305 307
302 303 303 302 301 300 300 299 297 295 295 295 296 296 297 299 302 303 300 299 299 298 298 297 296 297 297 297 296 298 297 299 300 303 302 302 303 303 302 302 303 304 306
299 300 299 300 298 298 298 298 298 295 294 293 293 294 294 298 298 301 299 299 300 298 297 296 295 294 295 296 297 296 296 295 294 302 299 298 302 300 301 302 302 303 304
297 297 297 298 295 294 294 294 295 292 292 291 292 291 292 295 296 297 296 297 298 298 299 297 294 294 293 295 295 295 295 295 295 298 298 295 301 299 302 302 302 302 302
296 296 295 293 292 293 293 293 292 290 290 290 291 291 291 293 295 295 294 295 296 297 297 297 295 295 296 297 296 296 296 296 297 298 299 293 298 298 302 302 301 300 301
292 293 292 291 290 290 292 292 291 290 289 289 290 291 292 293 293 293 293 293 294 295 298 297 297 296 296 295 296 296 295 294 293 294 298 295 297 298 299 303 305 305 303
289 290 289 289 291 289 290 291 291 290 288 289 290 291 291 292 292 292 292 292 292 293 294 294 296 296 296 296 297 296 295 293 294 293 297 295 297 298 296 303 303 305 305
Wind_Speed
3 3 3 3 3 2 2 2 2 2 4 6 6 6 5 6 7 5 4 15 16 20 22 23 22 19 13 12 16 17 17 13 14 15 14 13 15 17 17 16 10 18 18
3 3 3 3 3 2 1 1 2 3 4 4 4 5 6 7 8 8 7 7 16 19 22 24 23 24 23 10 15 16 12 9 14 12 17 15 13 13 14 14 20 19 20
4 3 2 1 0 1 3 3 5 4 4 5 5 5 7 7 7 7 7 7 9 19 22 25 25 25 24 23 18 13 10 10 14 14 12 13 14 13 14 19 20 21 18
5 2 1 1 2 3 3 4 4 4 4 4 4 4 4 5 6 7 7 7 7 9 13 24 25 24 24 23 22 20 19 18 16 15 13 13 12 12 12 14 17 17 16
4 3 3 2 4 3 4 3 5 4 4 6 5 3 3 4 4 6 7 8 9 9 7 17 22 22 24 23 23 22 21 16 15 15 13 11 11 12 12 12 15 15 15
5 5 4 6 3 4 4 4 5 4 2 3 5 4 2 3 3 5 5 6 6 8 9 9 8 11 21 22 23 24 24 22 19 18 18 13 11 10 11 12 13 14 15
4 5 5 5 6 5 3 3 2 5 6 5 3 3 2 2 5 4 4 5 9 8 8 8 7 7 8 21 21 23 25 25 23 22 20 18 16 13 12 12 14 14 15
9 8 4 6 3 3 4 6 1 2 2 5 2 1 5 5 3 1 2 4 7 7 8 10 9 9 9 8 15 22 25 25 25 24 23 19 18 15 12 8 7 10 14
8 6 5 5 4 1 4 3 3 3 3 3 7 4 4 3 7 2 1 5 7 6 7 9 9 8 10 10 13 15 25 25 25 24 24 22 19 18 15 12 9 9 10
9 7 7 4 4 3 4 3 2 3 3 4 2 3 0 2 3 7 2 2 5 6 7 6 6 7 9 9 15 19 24 23 24 24 24 23 20 18 17 14 10 10 10
3 3 3 5 4 3 4 5 4 4 3 2 2 1 0 1 2 4 9 8 6 7 7 6 5 6 8 9 9 14 23 23 23 23 22 22 22 18 16 15 14 10 9
4 3 6 4 4 5 3 4 5 5 5 4 1 2 1 1 3 3 5 9 10 7 8 3 5 6 6 8 13 21 19 22 22 22 18 19 20 22 17 15 14 14 12
2 5 3 5 3 3 5 4 5 6 6 4 4 2 1 2 2 2 3 6 6 5 4 4 2 5 7 7 9 20 18 21 19 20 19 20 19 20 21 17 15 15 11
4 4 4 6 6 4 4 6 5 6 6 4 4 2 2 2 1 2 3 4 7 6 6 11 3 3 8 7 12 19 11 19 19 18 19 18 18 19 21 21 18 15 14
4 5 5 6 4 5 7 7 6 6 5 3 3 3 3 3 3 3 3 3 5 7 8 4 9 8 9 8 11 10 11 17 19 18 18 15 16 17 19 20 21 16 15
6 6 6 5 6 7 7 6 6 5 5 4 4 4 3 3 3 3 3 5 5 6 7 9 9 11 10 9 11 11 12 17 16 18 18 16 15 15 17 18 20 21 15
7 6 5 5 6 8 6 7 6 7 6 5 4 5 5 5 4 3 5 4 4 6 8 10 8 10 12 11 11 9 11 10 8 16 17 17 12 11 15 17 18 19 19
6 5 5 6 7 7 7 7 7 5 6 6 6 7 6 5 7 5 5 5 4 5 5 13 12 9 11 11 11 10 9 9 9 13 16 18 14 11 14 15 16 16 15
6 5 5 7 6 7 7 7 5 5 6 6 7 6 7 8 8 7 6 6 7 7 9 9 11 9 9 9 10 10 9 9 7 14 14 15 13 12 16 15 14 13 10
7 6 5 6 7 7 7 6 4 5 6 7 6 6 8 9 10 7 6 7 8 10 10 9 10 11 11 10 8 9 10 8 9 10 11 10 12 14 17 16 15 14 8
6 5 6 7 5 6 6 5 4 6 7 7 6 9 9 13 13 11 6 8 10 9 8 9 10 10 10 8 8 7 9 9 9 9 6 5 9 9 9 12 12 13 10
6 7 6 7 7 6 10 12 9 7 7 8 9 9 10 11 11 12 15 16 12 9 11 8 10 10 12 9 9 8 8 7 5 2 7 9 8 9 9 8 11 12 11
5 6 6 8 8 8 14 15 16 8 8 9 9 9 9 8 11 10 14 17 14 13 13 11 12 12 14 11 11 12 9 8 8 7 7 8 6 9 8 8 12 12 12
5 6 8 9 8 9 15 16 17 9 8 10 10 9 8 9 9 12 14 13 12 12 10 9 11 13 13 13 12 11 11 9 7 7 5 4 5 8 7 6 9 10 11
8 9 8 8 8 7 14 14 14 10 9 9 9 8 8 9 11 15 11 13 14 13 10 16 18 21 20 19 15 8 6 5 5 3 2 2 4 7 4 3 5 11 8
9 7 9 8 10 8 12 15 14 7 10 8 9 8 11 11 14 16 10 10 12 13 15 16 13 12 11 11 13 7 6 6 5 4 0 2 2 5 4 1 4 6 7
Wind_Direction
245 270 285 291 282 291 272 283 325 355 13 3 0 353 347 348 348 355 4 11 13 15 18 12 5 354 329 238 240 259 257 264 270 283 275 268 260 251 244 247 243 258 237
255 271 289 300 309 289 273 171 89 55 36 9 354 355 11 12 26 14 17 11 19 21 21 17 10 6 3 307 243 270 283 292 274 283 284 271 270 261 251 236 243 244 239
240 270 285 283 124 37 64 64 63 48 39 10 356 4 27 22 27 16 24 22 16 21 19 15 11 8 5 1 353 312 299 278 311 301 277 283 283 261 253 232 229 236 231
216 247 211 173 72 56 51 52 38 37 17 10 354 0 22 53 20 27 34 30 26 21 13 11 6 4 6 3 3 356 348 336 327 313 294 286 284 279 269 243 237 235 235
198 183 133 110 72 73 52 71 54 53 18 357 339 347 22 57 23 44 32 29 30 21 6 6 4 2 5 10 11 10 1 350 338 328 308 289 291 287 278 260 243 235 230
183 141 117 93 68 97 59 50 71 36 36 346 314 329 73 92 39 45 23 27 23 16 10 1 354 356 1 7 12 9 9 6 3 2 356 340 322 300 282 265 253 238 232
139 92 85 90 44 47 46 61 76 46 18 354 350 347 12 23 48 38 11 27 14 8 3 353 355 354 357 6 6 6 10 8 5 0 359 354 339 305 282 256 241 244 232
67 68 79 84 156 84 65 58 85 94 38 18 60 6 357 339 351 359 8 33 6 355 352 356 358 359 9 0 358 357 0 359 357 358 357 347 346 335 306 295 275 248 230
95 129 133 144 94 144 101 116 81 96 75 38 46 104 13 322 330 296 337 18 359 354 335 347 4 14 11 3 359 352 355 354 353 351 352 348 345 343 335 332 303 271 255
137 178 127 138 156 153 131 105 106 74 80 51 38 51 170 231 304 314 230 344 349 330 316 333 2 8 9 5 357 348 346 350 349 350 351 352 345 341 336 334 321 291 257
119 79 112 182 143 115 85 82 61 71 71 98 57 354 314 315 285 258 296 313 333 328 325 340 10 8 7 4 350 337 340 349 347 348 346 354 356 343 336 322 317 306 276
47 243 196 148 91 78 79 67 67 74 66 67 41 41 7 310 284 283 280 320 320 322 309 327 28 358 352 344 343 339 345 342 344 345 348 352 353 358 339 330 313 304 292
214 229 150 89 80 85 70 86 71 61 52 50 26 1 321 277 274 281 287 310 306 298 315 345 333 332 342 338 337 338 343 340 341 356 356 358 358 355 359 337 326 308 286
204 204 102 90 80 85 91 72 68 61 59 48 27 345 322 311 305 291 287 298 311 324 342 325 318 340 327 328 331 329 332 337 338 343 342 351 355 354 356 358 340 323 308
169 101 89 93 93 80 75 75 71 62 49 9 356 358 317 322 334 309 282 281 315 321 329 343 327 319 330 320 318 329 329 323 336 335 334 338 343 349 352 352 357 331 317
110 110 106 101 86 79 80 86 74 54 38 13 357 342 355 322 325 316 309 334 325 325 309 330 306 304 309 309 322 328 316 321 319 325 328 336 337 349 348 347 351 352 327
107 100 96 103 94 84 77 73 66 39 21 1 0 359 350 331 305 318 322 317 326 323 303 301 296 299 299 311 315 317 315 313 314 319 319 330 333 347 344 343 343 346 351
98 114 119 106 93 89 73 71 58 32 12 354 4 5 340 327 297 325 316 303 304 289 286 300 303 302 296 304 302 309 311 313 312 311 313 320 320 335 341 334 332 335 338
96 86 106 100 98 81 75 64 55 30 8 15 14 349 339 339 329 320 322 316 314 307 295 291 293 298 303 313 312 312 308 304 298 308 311 311 309 314 328 319 318 317 329
94 79 87 92 79 76 63 58 45 33 13 16 13 350 346 342 319 310 327 334 327 304 301 302 306 311 311 314 303 305 311 311 308 309 303 297 299 303 312 307 308 307 313
79 79 72 67 78 74 55 37 17 31 18 2 7 0 346 326 324 325 345 329 316 307 305 309 305 305 307 316 309 307 295 303 304 286 297 295 308 306 306 302 298 299 302
59 67 62 71 65 62 44 35 32 20 9 10 344 354 335 325 334 322 329 322 319 306 304 308 303 301 301 310 306 302 295 300 311 275 332 303 305 304 299 293 285 283 294
67 70 64 84 75 60 42 30 20 11 353 360 334 340 333 327 325 321 319 322 319 313 305 300 295 301 300 302 299 296 294 283 275 287 299 296 308 299 309 300 281 275 284
65 67 65 67 65 46 33 26 11 355 0 343 342 327 320 315 319 330 324 323 322 319 307 309 297 292 290 295 292 289 289 285 278 281 267 272 312 304 319 319 313 283 277
59 60 58 50 44 19 18 13 5 355 351 339 324 319 319 317 325 323 326 322 319 312 312 310 297 288 285 286 283 297 286 277 291 277 265 272 299 315 308 319 349 349 356
62 57 52 35 31 21 5 9 11 353 359 337 319 323 326 327 323 323 325 320 313 319 321 317 306 302 296 294 299 304 302 304 283 274 155 197 289 332 316 324 347 348 353